Bryce, UT

6:44 PM MST on February 24, 2017 (GMT -0700)
Bryce Canyon

Weather History for KBCE - November, 2012

Change the Weather History Date:

Saturday, November 10, 2012

  Actual Average Record
Temperature  
Mean Temperature 20 °F -  
Max Temperature 25 °F 47 °F 60 °F (1973)
Min Temperature 12 °F 21 °F -2 °F (2011)
Degree Days  
Heating Degree Days 46    
Moisture  
Dew Point 15 °F    
Average Humidity 80    
Maximum Humidity 93    
Minimum Humidity 51    
Precipitation  
Precipitation 0.03 in - - ()
Sea Level Pressure  
Sea Level Pressure 29.77 in    
Wind  
Wind Speed 8 mph (WNW)    
Max Wind Speed 18 mph    
Max Gust Speed 29 mph    
Visibility 5 miles    
Events Fog , Snow    
Averages and records for this station are not official NWS values.
T = Trace of Precipitation, MM = Missing Value Source: NWS Daily Summary

Daily Weather History Graph

Daily Weather History Graph

Search for Another Location

Airport or City:

Trip Planner

Search our weather history database for the weather conditions in past years. The results will help you decide how hot, cold, wet, or windy it might be!

Date:

Astronomy

Nov. 10, 2012 Rise Set
Actual Time 7:03 AM MST 5:20 PM MST
Civil Twilight 6:36 AM MST 5:48 PM MST
Nautical Twilight 6:04 AM MST 6:19 PM MST
Astronomical Twilight 5:33 AM MST 6:50 PM MST
Moon 3:16 AM MST (11/10) 3:06 PM MST (11/10)
Length of Visible Light 11h 12m
Length of Day
10h 16m
Waning Crescent, 14% of the Moon is Illuminated
Nov 10
Waning Crescent
Nov 13
New
Nov 20
First Quarter
Nov 28
Full
Dec 6
Last Quarter

Hourly Weather History & Observations

Time (MST) Temp. Windchill Dew Point Humidity Pressure Visibility Wind Dir Wind Speed Gust Speed Precip Events Conditions
12:53 AM 18.0 °F 9.8 °F 14.0 °F 84% 29.56 in 10.0 mi NNW 5.8 mph - N/A   Clear
1:53 AM 17.1 °F 10.0 °F 12.9 °F 84% 29.55 in 10.0 mi South 4.6 mph - N/A   Clear
2:53 AM 18.0 °F 8.7 °F 12.0 °F 78% 29.56 in 10.0 mi SSE 6.9 mph - N/A   Clear
3:53 AM 19.0 °F 11.1 °F 12.0 °F 74% 29.54 in 10.0 mi SSE 5.8 mph - N/A   Partly Cloudy
4:34 AM 21.2 °F 13.6 °F 12.2 °F 68% 29.65 in 10.0 mi WNW 5.8 mph - N/A   Overcast
4:53 AM 21.0 °F 14.6 °F 12.9 °F 71% 29.57 in 10.0 mi WSW 4.6 mph - N/A   Overcast
5:53 AM 19.9 °F 12.1 °F 12.9 °F 74% 29.60 in 10.0 mi WNW 5.8 mph - N/A   Overcast
6:53 AM 19.9 °F 9.3 °F 15.1 °F 81% 29.62 in 10.0 mi ESE 9.2 mph - N/A   Overcast
7:12 AM 19.4 °F 9.5 °F 15.8 °F 86% 29.68 in 2.0 mi SSE 8.1 mph - 0.00 in Snow Light Snow
7:16 AM 19.4 °F 9.5 °F 15.8 °F 86% 29.68 in 1.0 mi SSE 8.1 mph - 0.00 in Snow Light Snow
7:23 AM 19.4 °F 10.4 °F 15.8 °F 86% 29.68 in 0.5 mi SE 6.9 mph - 0.00 in Fog , Snow Snow
7:30 AM 19.4 °F 10.4 °F 15.8 °F 86% 29.69 in 1.2 mi SE 6.9 mph - 0.00 in Snow Light Snow
7:36 AM 19.4 °F 10.4 °F 15.8 °F 86% 29.69 in 3.0 mi SE 6.9 mph - 0.00 in Snow Light Snow
7:48 AM 19.4 °F 11.5 °F 15.8 °F 86% 29.69 in 1.8 mi SE 5.8 mph - 0.00 in Snow Light Snow
7:53 AM 19.9 °F 14.9 °F 17.1 °F 89% 29.66 in 0.8 mi SE 3.5 mph - 0.00 in Snow Light Snow
8:05 AM 19.4 °F 14.3 °F 17.6 °F 93% 29.70 in 2.0 mi South 3.5 mph - 0.00 in Snow Light Snow
8:27 AM 21.2 °F 16.4 °F 17.6 °F 86% 29.70 in 10.0 mi West 3.5 mph - 0.00 in   Scattered Clouds
8:53 AM 21.9 °F 17.2 °F 17.1 °F 82% 29.68 in 10.0 mi Variable 3.5 mph - 0.00 in   Overcast
9:04 AM 21.2 °F 11.7 °F 17.6 °F 86% 29.71 in 2.5 mi WSW 8.1 mph - 0.00 in Snow Light Snow
9:12 AM 21.2 °F 12.6 °F 17.6 °F 86% 29.71 in 1.0 mi WSW 6.9 mph - 0.00 in Snow Light Snow
9:23 AM 23.0 °F 13.9 °F 17.6 °F 80% 29.72 in 3.0 mi West 8.1 mph - 0.01 in Snow Light Snow
9:53 AM 23.0 °F 9.2 °F 17.1 °F 78% 29.70 in 10.0 mi West 17.3 mph - 0.01 in   Overcast
10:10 AM 23.0 °F 9.6 °F 17.6 °F 80% 29.74 in 1.8 mi West 16.1 mph 21.9 mph 0.00 in Snow Light Snow
10:16 AM 21.2 °F 8.3 °F 17.6 °F 86% 29.74 in 0.8 mi West 13.8 mph - 0.00 in Snow Light Snow
10:26 AM 23.0 °F 10.6 °F 17.6 °F 80% 29.74 in 1.8 mi West 13.8 mph - 0.00 in Snow Light Snow
10:28 AM 24.8 °F 12.4 °F 17.6 °F 74% 29.75 in 2.5 mi West 15.0 mph 20.7 mph 0.00 in Snow Light Snow
10:35 AM 24.8 °F 12.4 °F 15.8 °F 69% 29.75 in 9.0 mi WNW 15.0 mph 20.7 mph 0.00 in   Overcast
10:53 AM 25.0 °F 13.6 °F 17.1 °F 72% 29.71 in 10.0 mi West 12.7 mph - 0.00 in   Mostly Cloudy
11:06 AM 23.0 °F 11.7 °F 15.8 °F 74% 29.75 in 1.8 mi WNW 11.5 mph 20.7 mph 0.00 in Snow Light Snow
11:12 AM 23.0 °F 11.7 °F 17.6 °F 80% 29.76 in 0.8 mi WNW 11.5 mph 20.7 mph 0.00 in Snow Light Snow
11:27 AM 21.2 °F 10.9 °F 15.8 °F 80% 29.76 in 1.5 mi West 9.2 mph - 0.00 in Snow Light Snow
11:35 AM 21.2 °F 10.1 °F 15.8 °F 80% 29.76 in 3.0 mi West 10.4 mph - 0.00 in Snow Light Snow
11:46 AM 21.2 °F 9.5 °F 15.8 °F 80% 29.76 in 1.8 mi West 11.5 mph 20.7 mph 0.00 in Snow Light Snow
11:53 AM 21.9 °F 12.5 °F 17.1 °F 82% 29.75 in 2.0 mi West 8.1 mph - 0.00 in Snow Light Snow
12:02 PM 24.8 °F 14.6 °F 17.6 °F 74% 29.76 in 7.0 mi West 10.4 mph - 0.00 in Snow Light Snow
12:09 PM 24.8 °F 13.4 °F 15.8 °F 69% 29.76 in 9.0 mi WNW 12.7 mph - 0.00 in   Mostly Cloudy
12:18 PM 24.8 °F 13.4 °F 15.8 °F 69% 29.76 in 6.0 mi NW 12.7 mph - 0.00 in Snow Light Snow
12:30 PM 23.0 °F 12.4 °F 14.0 °F 68% 29.76 in 9.0 mi WNW 10.4 mph 20.7 mph 0.00 in   Mostly Cloudy
12:53 PM 25.0 °F 11.3 °F 12.9 °F 60% 29.75 in 10.0 mi West 18.4 mph 25.3 mph 0.00 in   Partly Cloudy
1:53 PM 25.0 °F 13.1 °F 9.0 °F 51% 29.77 in 10.0 mi WNW 13.8 mph 24.2 mph N/A   Partly Cloudy
2:53 PM 23.0 °F 9.6 °F 8.1 °F 53% 29.78 in 10.0 mi WNW 16.1 mph 28.8 mph N/A   Clear
3:53 PM 21.9 °F 9.8 °F 12.9 °F 68% 29.81 in 9.0 mi NW 12.7 mph - 0.00 in Snow Light Snow
4:25 PM 19.4 °F 5.5 °F 14.0 °F 80% 29.81 in 2.5 mi NW 15.0 mph 21.9 mph 0.00 in Snow Light Snow
4:39 PM 17.6 °F 3.2 °F 14.0 °F 86% 29.81 in 1.2 mi NW 15.0 mph 24.2 mph 0.00 in Snow Light Snow
4:49 PM 17.6 °F 3.2 °F 14.0 °F 86% 29.82 in 2.0 mi NNW 15.0 mph - 0.00 in Snow Light Snow
4:53 PM 18.0 °F 4.2 °F 14.0 °F 84% 29.84 in 2.5 mi NNW 13.8 mph - 0.00 in Snow Light Snow
4:58 PM 19.4 °F 5.0 °F 14.0 °F 80% 29.82 in 0.8 mi NNW 16.1 mph 21.9 mph 0.00 in Snow Light Snow
5:05 PM 17.6 °F 4.3 °F 15.8 °F 93% 29.82 in 0.5 mi NNW 12.7 mph - 0.00 in Fog , Snow Light Snow
5:10 PM 17.6 °F 5.7 °F 14.0 °F 86% 29.83 in 2.0 mi NW 10.4 mph - 0.00 in Snow Light Snow
5:17 PM 17.6 °F 5.7 °F 12.2 °F 79% 29.83 in 9.0 mi NW 10.4 mph - 0.00 in   Overcast
5:53 PM 18.0 °F 6.1 °F 12.0 °F 78% 29.86 in 10.0 mi West 10.4 mph - 0.00 in   Mostly Cloudy
6:23 PM 17.6 °F 5.0 °F 14.0 °F 86% 29.85 in 2.5 mi WNW 11.5 mph - 0.00 in Snow Light Snow
6:31 PM 17.6 °F 7.3 °F 14.0 °F 86% 29.86 in 1.5 mi NW 8.1 mph - 0.00 in Snow Light Snow
6:40 PM 17.6 °F 9.3 °F 12.2 °F 79% 29.87 in 3.0 mi NNW 5.8 mph - 0.00 in Snow Light Snow
6:53 PM 18.0 °F 9.8 °F 12.9 °F 81% 29.91 in 10.0 mi NW 5.8 mph - 0.00 in   Overcast
7:10 PM 17.6 °F 10.7 °F 12.2 °F 79% 29.88 in 2.0 mi WNW 4.6 mph - 0.01 in Snow Light Snow
7:20 PM 17.6 °F 10.7 °F 14.0 °F 86% 29.88 in 4.0 mi WNW 4.6 mph - 0.01 in Snow Light Snow
7:26 PM 17.6 °F 9.3 °F 14.0 °F 86% 29.88 in 2.5 mi WNW 5.8 mph - 0.01 in Snow Light Snow
7:35 PM 17.6 °F 7.3 °F 15.8 °F 93% 29.88 in 1.0 mi WNW 8.1 mph - 0.01 in Snow Light Snow
7:38 PM 17.6 °F 10.7 °F 15.8 °F 93% 29.88 in 0.8 mi NW 4.6 mph - 0.01 in Snow Light Snow
7:53 PM 18.0 °F 6.9 °F 15.1 °F 88% 29.92 in 0.8 mi WNW 9.2 mph - 0.02 in Snow Light Snow
8:03 PM 17.6 °F 8.2 °F 14.0 °F 86% 29.88 in 1.0 mi NW 6.9 mph - 0.00 in Snow Light Snow
8:09 PM 17.6 °F 8.2 °F 14.0 °F 86% 29.88 in 2.0 mi NW 6.9 mph - 0.00 in Snow Light Snow
8:15 PM 15.8 °F 6.1 °F 12.2 °F 86% 29.88 in 9.0 mi WNW 6.9 mph - 0.00 in   Overcast
8:22 PM 15.8 °F 7.2 °F 12.2 °F 86% 29.88 in 10.0 mi WNW 5.8 mph - 0.00 in   Mostly Cloudy
8:30 PM 14.0 °F 3.9 °F 10.4 °F 86% 29.88 in 10.0 mi West 6.9 mph - 0.00 in   Scattered Clouds
10:53 PM 14.0 °F 2.0 °F 9.0 °F 80% 29.94 in 10.0 mi NW 9.2 mph - N/A   Mostly Cloudy
11:53 PM 12.0 °F 2.7 °F 8.1 °F 84% 30.00 in 10.0 mi North 5.8 mph - N/A   Mostly Cloudy